User: anonymous
Location: NJAA Observatory
(40.6819°N, 74.8979°W)
Time: 11:52:27
(UTC-04:00)
Language:

Cosmos 2082 - Orbit

View from above orbital plane
View from above orbital plane
View from above satellite
View from above satellite

Ground track
Ground track

The orbit data is extracted from the following two-line orbital elements,

1 20624U 90046A   14272.80532638  .00000390  00000-0  22924-3 0   348
2 20624 071.0389 129.4245 0013170 099.9028 312.6871 14.14087726257046
Epoch (UTC): 29 September 2014 19:19:40
Eccentricity: 0.0013170
inclination: 71.0389°
perigee height: 836 km
apogee height: 855 km
right ascension of ascending node: 129.4245°
argument of perigee: 99.9028°
revolutions per day: 14.14087726
mean anomaly at epoch: 312.6871°
orbit number at epoch: 25704

The dashed part of the orbit path shows where the satellite is in the earth's shadow,  

DLR